Year,Month,Day,Hour,Minute,Value (Times are PST for temperature in C)
2017,11,27,00,00,4.60
2017,11,27,00,01,4.70
2017,11,27,00,02,4.70
2017,11,27,00,03,4.60
2017,11,27,00,04,4.60
2017,11,27,00,05,4.60
2017,11,27,00,06,4.60
2017,11,27,00,07,4.60
2017,11,27,00,08,4.60
2017,11,27,00,09,4.60
2017,11,27,00,10,4.60
2017,11,27,00,11,4.60
2017,11,27,00,12,4.60
2017,11,27,00,13,4.60
2017,11,27,00,14,4.60
2017,11,27,00,15,4.60
2017,11,27,00,16,4.70
2017,11,27,00,17,4.70
2017,11,27,00,18,4.70
2017,11,27,00,19,4.70
2017,11,27,00,20,4.70
2017,11,27,00,21,4.70
2017,11,27,00,22,4.70
2017,11,27,00,23,4.70
2017,11,27,00,24,4.70
2017,11,27,00,25,4.70
2017,11,27,00,26,4.70
2017,11,27,00,27,4.70
2017,11,27,00,28,4.70
2017,11,27,00,29,4.80
2017,11,27,00,30,4.80
2017,11,27,00,31,4.80
2017,11,27,00,32,4.80
2017,11,27,00,33,4.80
2017,11,27,00,34,4.80
2017,11,27,00,35,4.80
2017,11,27,00,36,4.80
2017,11,27,00,37,4.90
2017,11,27,00,38,4.90
2017,11,27,00,39,4.90
2017,11,27,00,40,5.00
2017,11,27,00,41,5.10
2017,11,27,00,42,5.10
2017,11,27,00,43,5.00
2017,11,27,00,44,4.80
2017,11,27,00,45,4.70
2017,11,27,00,46,4.60
2017,11,27,00,47,4.50
2017,11,27,00,48,4.40
2017,11,27,00,49,4.40
2017,11,27,00,50,4.40
2017,11,27,00,51,4.40
2017,11,27,00,52,4.40
2017,11,27,00,53,4.40
2017,11,27,00,54,4.40
2017,11,27,00,55,4.40
2017,11,27,00,56,4.50
2017,11,27,00,57,4.50
2017,11,27,00,58,4.50
2017,11,27,00,59,4.50
2017,11,27,01,00,4.60
2017,11,27,01,01,4.60
2017,11,27,01,02,4.60
2017,11,27,01,03,4.70
2017,11,27,01,04,4.70
2017,11,27,01,05,4.80
2017,11,27,01,06,4.80
2017,11,27,01,07,4.90
2017,11,27,01,08,4.90
2017,11,27,01,09,4.90
2017,11,27,01,10,4.90
2017,11,27,01,11,4.90
2017,11,27,01,12,4.80
2017,11,27,01,13,4.80
2017,11,27,01,14,4.80
2017,11,27,01,15,4.70
2017,11,27,01,16,4.70
2017,11,27,01,17,4.70
2017,11,27,01,18,4.70
2017,11,27,01,19,4.70
2017,11,27,01,20,4.70
2017,11,27,01,21,4.70
2017,11,27,01,22,4.70
2017,11,27,01,23,4.70
2017,11,27,01,24,4.70
2017,11,27,01,25,4.70
2017,11,27,01,26,4.80
2017,11,27,01,27,4.80
2017,11,27,01,28,4.90
2017,11,27,01,29,4.90
2017,11,27,01,30,4.90
2017,11,27,01,31,5.00
2017,11,27,01,32,5.00
2017,11,27,01,33,5.10
2017,11,27,01,34,5.20
2017,11,27,01,35,5.20
2017,11,27,01,36,5.20
2017,11,27,01,37,5.20
2017,11,27,01,38,5.20
2017,11,27,01,39,5.20
2017,11,27,01,40,5.20
2017,11,27,01,41,5.20
2017,11,27,01,42,5.20
2017,11,27,01,43,5.20
2017,11,27,01,44,5.20
2017,11,27,01,45,5.30
2017,11,27,01,46,5.30
2017,11,27,01,47,5.30
2017,11,27,01,48,5.30
2017,11,27,01,49,5.30
2017,11,27,01,50,5.30
2017,11,27,01,51,5.40
2017,11,27,01,52,5.40
2017,11,27,01,53,5.40
2017,11,27,01,54,5.30
2017,11,27,01,55,5.30
2017,11,27,01,56,5.30
2017,11,27,01,57,5.30
2017,11,27,01,58,5.30
2017,11,27,01,59,5.30
2017,11,27,02,00,5.30
2017,11,27,02,01,5.30
2017,11,27,02,02,5.30
2017,11,27,02,03,5.30
2017,11,27,02,04,5.30
2017,11,27,02,05,5.30
2017,11,27,02,06,5.30
2017,11,27,02,07,5.30
2017,11,27,02,08,5.30
2017,11,27,02,09,5.30
2017,11,27,02,10,5.20
2017,11,27,02,11,5.20
2017,11,27,02,12,5.20
2017,11,27,02,13,5.20
2017,11,27,02,14,5.20
2017,11,27,02,15,5.20
2017,11,27,02,16,5.20
2017,11,27,02,17,5.30
2017,11,27,02,18,5.30
2017,11,27,02,19,5.40
2017,11,27,02,20,5.40
2017,11,27,02,21,5.40
2017,11,27,02,22,5.50
2017,11,27,02,23,5.50
2017,11,27,02,24,5.50
2017,11,27,02,25,5.60
2017,11,27,02,26,5.60
2017,11,27,02,27,5.70
2017,11,27,02,28,5.70
2017,11,27,02,29,5.80
2017,11,27,02,30,5.80
2017,11,27,02,31,5.90
2017,11,27,02,32,5.90
2017,11,27,02,33,6.00
2017,11,27,02,34,6.00
2017,11,27,02,35,6.10
2017,11,27,02,36,6.20
2017,11,27,02,37,6.20
2017,11,27,02,38,6.20
2017,11,27,02,39,6.30
2017,11,27,02,40,6.30
2017,11,27,02,41,6.40
2017,11,27,02,42,6.40
2017,11,27,02,43,6.40
2017,11,27,02,44,6.40
2017,11,27,02,45,6.30
2017,11,27,02,46,6.30
2017,11,27,02,47,6.30
2017,11,27,02,48,6.30
2017,11,27,02,49,6.40
2017,11,27,02,50,6.40
2017,11,27,02,51,6.40
2017,11,27,02,52,6.40
2017,11,27,02,53,6.40
2017,11,27,02,54,6.40
2017,11,27,02,55,6.40
2017,11,27,02,56,6.40
2017,11,27,02,57,6.40
2017,11,27,02,58,6.40
2017,11,27,02,59,6.40
2017,11,27,03,00,6.40
2017,11,27,03,01,6.40
2017,11,27,03,02,6.40
2017,11,27,03,03,6.40
2017,11,27,03,04,6.40
2017,11,27,03,05,6.40
2017,11,27,03,06,6.40
2017,11,27,03,07,6.40
2017,11,27,03,08,6.40
2017,11,27,03,09,6.40
2017,11,27,03,10,6.40
2017,11,27,03,11,6.50
2017,11,27,03,12,6.50
2017,11,27,03,13,6.50
2017,11,27,03,14,6.50
2017,11,27,03,15,6.50
2017,11,27,03,16,6.50
2017,11,27,03,17,6.50
2017,11,27,03,18,6.50
2017,11,27,03,19,6.60
2017,11,27,03,20,6.60
2017,11,27,03,21,6.60
2017,11,27,03,22,6.60
2017,11,27,03,23,6.60
2017,11,27,03,24,6.60
2017,11,27,03,25,6.60
2017,11,27,03,26,6.60
2017,11,27,03,27,6.60
2017,11,27,03,28,6.60
2017,11,27,03,29,6.60
2017,11,27,03,30,6.60
2017,11,27,03,31,6.60
2017,11,27,03,32,6.60
2017,11,27,03,33,6.60
2017,11,27,03,34,6.60
2017,11,27,03,35,6.60
2017,11,27,03,36,6.60
2017,11,27,03,37,6.60
2017,11,27,03,38,6.60
2017,11,27,03,39,6.60
2017,11,27,03,40,6.60
2017,11,27,03,41,6.60
2017,11,27,03,42,6.60
2017,11,27,03,43,6.60
2017,11,27,03,44,6.60
2017,11,27,03,45,6.60
2017,11,27,03,46,6.60
2017,11,27,03,47,6.60
2017,11,27,03,48,6.50
2017,11,27,03,49,6.50
2017,11,27,03,50,6.40
2017,11,27,03,51,6.40
2017,11,27,03,52,6.40
2017,11,27,03,53,6.40
2017,11,27,03,54,6.40
2017,11,27,03,55,6.40
2017,11,27,03,56,6.30
2017,11,27,03,57,6.30
2017,11,27,03,58,6.30
2017,11,27,03,59,6.20
2017,11,27,04,00,6.20
2017,11,27,04,01,6.20
2017,11,27,04,02,6.10
2017,11,27,04,03,6.10
2017,11,27,04,04,6.10
2017,11,27,04,05,6.00
2017,11,27,04,06,6.00
2017,11,27,04,07,6.00
2017,11,27,04,08,6.00
2017,11,27,04,09,6.00
2017,11,27,04,10,5.90
2017,11,27,04,11,5.90
2017,11,27,04,12,5.90
2017,11,27,04,13,5.90
2017,11,27,04,14,5.90
2017,11,27,04,15,5.90
2017,11,27,04,16,5.90
2017,11,27,04,17,5.90
2017,11,27,04,18,5.90
2017,11,27,04,19,5.90
2017,11,27,04,20,5.90
2017,11,27,04,21,5.90
2017,11,27,04,22,6.00
2017,11,27,04,23,6.00
2017,11,27,04,24,6.00
2017,11,27,04,25,6.10
2017,11,27,04,26,6.10
2017,11,27,04,27,6.10
2017,11,27,04,28,6.10
2017,11,27,04,29,6.10
2017,11,27,04,30,6.20
2017,11,27,04,31,6.20
2017,11,27,04,32,6.20
2017,11,27,04,33,6.20
2017,11,27,04,34,6.20
2017,11,27,04,35,6.20
2017,11,27,04,36,6.20
2017,11,27,04,37,6.20
2017,11,27,04,38,6.20
2017,11,27,04,39,6.20
2017,11,27,04,40,6.20
2017,11,27,04,41,6.20
2017,11,27,04,42,6.20
2017,11,27,04,43,6.20
2017,11,27,04,44,6.20
2017,11,27,04,45,6.20
2017,11,27,04,46,6.20
2017,11,27,04,47,6.10
2017,11,27,04,48,6.10
2017,11,27,04,49,6.10
2017,11,27,04,50,6.10
2017,11,27,04,51,6.10
2017,11,27,04,52,6.10
2017,11,27,04,53,6.10
2017,11,27,04,54,6.10
2017,11,27,04,55,6.10
2017,11,27,04,56,6.10
2017,11,27,04,57,6.10
2017,11,27,04,58,6.10
2017,11,27,04,59,6.10
2017,11,27,05,00,6.10
2017,11,27,05,01,6.10
2017,11,27,05,02,6.10
2017,11,27,05,03,6.10
2017,11,27,05,04,6.10
2017,11,27,05,05,6.10
2017,11,27,05,06,6.10
2017,11,27,05,07,6.10
2017,11,27,05,08,6.10
2017,11,27,05,09,6.10
2017,11,27,05,10,6.10
2017,11,27,05,11,6.00
2017,11,27,05,12,6.00
2017,11,27,05,13,6.00
2017,11,27,05,14,6.00
2017,11,27,05,15,5.90
2017,11,27,05,16,5.90
2017,11,27,05,17,5.90
2017,11,27,05,18,5.90
2017,11,27,05,19,5.90
2017,11,27,05,20,5.90
2017,11,27,05,21,5.80
2017,11,27,05,22,5.80
2017,11,27,05,23,5.80
2017,11,27,05,24,5.80
2017,11,27,05,25,5.80
2017,11,27,05,26,5.80
2017,11,27,05,27,5.80
2017,11,27,05,28,5.80
2017,11,27,05,29,5.80
2017,11,27,05,30,5.80
2017,11,27,05,31,5.90
2017,11,27,05,32,5.90
2017,11,27,05,33,5.90
2017,11,27,05,34,5.90
2017,11,27,05,35,5.90
2017,11,27,05,36,5.90
2017,11,27,05,37,5.90
2017,11,27,05,38,5.90
2017,11,27,05,39,5.90
2017,11,27,05,40,6.00
2017,11,27,05,41,6.00
2017,11,27,05,42,6.00
2017,11,27,05,43,6.00
2017,11,27,05,44,6.00
2017,11,27,05,45,6.00
2017,11,27,05,46,6.00
2017,11,27,05,47,5.90
2017,11,27,05,48,5.90
2017,11,27,05,49,5.90
2017,11,27,05,50,5.90
2017,11,27,05,51,5.90
2017,11,27,05,52,5.90
2017,11,27,05,53,5.80
2017,11,27,05,54,5.80
2017,11,27,05,55,5.80
2017,11,27,05,56,5.80
2017,11,27,05,57,5.80
2017,11,27,05,58,5.80
2017,11,27,05,59,5.70
2017,11,27,06,00,5.70
2017,11,27,06,01,5.70
2017,11,27,06,02,5.70
2017,11,27,06,03,5.70
2017,11,27,06,04,5.80
2017,11,27,06,05,5.70
2017,11,27,06,06,5.70
2017,11,27,06,07,5.70
2017,11,27,06,08,5.70
2017,11,27,06,09,5.70
2017,11,27,06,10,5.70
2017,11,27,06,11,5.70
2017,11,27,06,12,5.70
2017,11,27,06,13,5.70
2017,11,27,06,14,5.60
2017,11,27,06,15,5.60
2017,11,27,06,16,5.60
2017,11,27,06,17,5.60
2017,11,27,06,18,5.60
2017,11,27,06,19,5.50
2017,11,27,06,20,5.50
2017,11,27,06,21,5.50
2017,11,27,06,22,5.40
2017,11,27,06,23,5.40
2017,11,27,06,24,5.40
2017,11,27,06,25,5.40
2017,11,27,06,26,5.30
2017,11,27,06,27,5.30
2017,11,27,06,28,5.30
2017,11,27,06,29,5.30
2017,11,27,06,30,5.30
2017,11,27,06,31,5.30
2017,11,27,06,32,5.30
2017,11,27,06,33,5.30
2017,11,27,06,34,5.30
2017,11,27,06,35,5.20
2017,11,27,06,36,5.20
2017,11,27,06,37,5.20
2017,11,27,06,38,5.20
2017,11,27,06,39,5.20
2017,11,27,06,40,5.20
2017,11,27,06,41,5.20
2017,11,27,06,42,5.10
2017,11,27,06,43,5.10
2017,11,27,06,44,5.10
2017,11,27,06,45,5.10
2017,11,27,06,46,5.10
2017,11,27,06,47,5.20
2017,11,27,06,48,5.10
2017,11,27,06,49,5.10
2017,11,27,06,50,5.10
2017,11,27,06,51,5.10
2017,11,27,06,52,5.10
2017,11,27,06,53,5.10
2017,11,27,06,54,5.10
2017,11,27,06,55,5.00
2017,11,27,06,56,5.00
2017,11,27,06,57,4.90
2017,11,27,06,58,4.90
2017,11,27,06,59,4.90
2017,11,27,07,00,4.90
2017,11,27,07,01,4.90
2017,11,27,07,02,4.80
2017,11,27,07,03,4.80
2017,11,27,07,04,4.80
2017,11,27,07,05,4.80
2017,11,27,07,06,4.70
2017,11,27,07,07,4.70
2017,11,27,07,08,4.70
2017,11,27,07,09,4.70
2017,11,27,07,10,4.70
2017,11,27,07,11,4.70
2017,11,27,07,12,4.70
2017,11,27,07,13,4.70
2017,11,27,07,14,4.60
2017,11,27,07,15,4.60
2017,11,27,07,16,4.60
2017,11,27,07,17,4.60
2017,11,27,07,18,4.60
2017,11,27,07,19,4.60
2017,11,27,07,20,4.60
2017,11,27,07,21,4.60
2017,11,27,07,22,4.50
2017,11,27,07,23,4.50
2017,11,27,07,24,4.50
2017,11,27,07,25,4.50
2017,11,27,07,26,4.50
2017,11,27,07,27,4.50
2017,11,27,07,28,4.50
2017,11,27,07,29,4.60
2017,11,27,07,30,4.60
2017,11,27,07,31,4.60
2017,11,27,07,32,4.60
2017,11,27,07,33,4.60
2017,11,27,07,34,4.60
2017,11,27,07,35,4.60
2017,11,27,07,36,4.60
2017,11,27,07,37,4.60
2017,11,27,07,38,4.70
2017,11,27,07,39,4.70
2017,11,27,07,40,4.70
2017,11,27,07,41,4.70
2017,11,27,07,42,4.70
2017,11,27,07,43,4.70
2017,11,27,07,44,4.70
2017,11,27,07,45,4.80
2017,11,27,07,46,4.80
2017,11,27,07,47,4.80
2017,11,27,07,48,4.80
2017,11,27,07,49,4.80
2017,11,27,07,50,4.80
2017,11,27,07,51,4.80
2017,11,27,07,52,4.80
2017,11,27,07,53,4.80
2017,11,27,07,54,4.80
2017,11,27,07,55,4.80
2017,11,27,07,56,4.80
2017,11,27,07,57,4.90
2017,11,27,07,58,4.90
2017,11,27,07,59,4.90
2017,11,27,08,00,4.90
2017,11,27,08,01,4.90
2017,11,27,08,02,4.90
2017,11,27,08,03,4.90
2017,11,27,08,04,5.00
2017,11,27,08,05,5.00
2017,11,27,08,06,5.00
2017,11,27,08,07,5.00
2017,11,27,08,08,5.10
2017,11,27,08,09,5.10
2017,11,27,08,10,5.10
2017,11,27,08,11,5.10
2017,11,27,08,12,5.10
2017,11,27,08,13,5.20
2017,11,27,08,14,5.20
2017,11,27,08,15,5.20
2017,11,27,08,16,5.20
2017,11,27,08,17,5.30
2017,11,27,08,18,5.30
2017,11,27,08,19,5.30
2017,11,27,08,20,5.30
2017,11,27,08,21,5.30
2017,11,27,08,22,5.30
2017,11,27,08,23,5.30
2017,11,27,08,24,5.30
2017,11,27,08,25,5.30
2017,11,27,08,26,5.30
2017,11,27,08,27,5.20
2017,11,27,08,28,5.20
2017,11,27,08,29,5.20
2017,11,27,08,30,5.20
2017,11,27,08,31,5.20
2017,11,27,08,32,5.20
2017,11,27,08,33,5.20
2017,11,27,08,34,5.20
2017,11,27,08,35,5.20
2017,11,27,08,36,5.20
2017,11,27,08,37,5.30
2017,11,27,08,38,5.30
2017,11,27,08,39,5.30
2017,11,27,08,40,5.40
2017,11,27,08,41,5.50
2017,11,27,08,42,5.50
2017,11,27,08,43,5.60
2017,11,27,08,44,5.60
2017,11,27,08,45,5.60
2017,11,27,08,46,5.70
2017,11,27,08,47,5.70
2017,11,27,08,48,5.80
2017,11,27,08,49,5.80
2017,11,27,08,50,5.90
2017,11,27,08,51,5.90
2017,11,27,08,52,6.00
2017,11,27,08,53,6.10
2017,11,27,08,54,6.20
2017,11,27,08,55,6.30
2017,11,27,08,56,6.40
2017,11,27,08,57,6.50
2017,11,27,08,58,6.60
2017,11,27,08,59,6.60
2017,11,27,09,00,6.70
2017,11,27,09,01,6.70
2017,11,27,09,02,6.70
2017,11,27,09,03,6.70
2017,11,27,09,04,6.70
2017,11,27,09,05,6.70
2017,11,27,09,06,6.70
2017,11,27,09,07,6.70
2017,11,27,09,08,6.80
2017,11,27,09,09,6.80
2017,11,27,09,10,6.80
2017,11,27,09,11,6.80
2017,11,27,09,12,6.80
2017,11,27,09,13,6.90
2017,11,27,09,14,6.90
2017,11,27,09,15,7.00
2017,11,27,09,16,7.10
2017,11,27,09,17,7.20
2017,11,27,09,18,7.30
2017,11,27,09,19,7.30
2017,11,27,09,20,7.40
2017,11,27,09,21,7.40
2017,11,27,09,22,7.50
2017,11,27,09,23,7.50
2017,11,27,09,24,7.60
2017,11,27,09,25,7.70
2017,11,27,09,26,7.70
2017,11,27,09,27,7.70
2017,11,27,09,28,7.80
2017,11,27,09,29,7.80
2017,11,27,09,30,7.90
2017,11,27,09,31,7.90
2017,11,27,09,32,7.90
2017,11,27,09,33,7.90
2017,11,27,09,34,8.00
2017,11,27,09,35,8.00
2017,11,27,09,36,8.00
2017,11,27,09,37,8.10
2017,11,27,09,38,8.10
2017,11,27,09,39,8.10
2017,11,27,09,40,8.10
2017,11,27,09,41,8.20
2017,11,27,09,42,8.20
2017,11,27,09,43,8.20
2017,11,27,09,44,8.20
2017,11,27,09,45,8.30
2017,11,27,09,46,8.30
2017,11,27,09,47,8.30
2017,11,27,09,48,8.30
2017,11,27,09,49,8.40
2017,11,27,09,50,8.40
2017,11,27,09,51,8.40
2017,11,27,09,52,8.40
2017,11,27,09,53,8.40
2017,11,27,09,54,8.40
2017,11,27,09,55,8.40
2017,11,27,09,56,8.40
2017,11,27,09,57,8.40
2017,11,27,09,58,8.40
2017,11,27,09,59,8.40
2017,11,27,10,00,8.50
2017,11,27,10,01,8.50
2017,11,27,10,02,8.60
2017,11,27,10,03,8.60
2017,11,27,10,04,8.60
2017,11,27,10,05,8.60
2017,11,27,10,06,8.70
2017,11,27,10,07,8.70
2017,11,27,10,08,8.70
2017,11,27,10,09,8.70
2017,11,27,10,10,8.70
2017,11,27,10,11,8.80
2017,11,27,10,12,8.80
2017,11,27,10,13,8.90
2017,11,27,10,14,8.90
2017,11,27,10,15,9.00
2017,11,27,10,16,9.00
2017,11,27,10,17,9.10
2017,11,27,10,18,9.10
2017,11,27,10,19,9.10
2017,11,27,10,20,9.10
2017,11,27,10,21,9.10
2017,11,27,10,22,9.10
2017,11,27,10,23,9.00
2017,11,27,10,24,9.00
2017,11,27,10,25,8.90
2017,11,27,10,26,8.90
2017,11,27,10,27,8.90
2017,11,27,10,28,8.90
2017,11,27,10,29,8.80
2017,11,27,10,30,8.80
2017,11,27,10,31,8.80
2017,11,27,10,32,8.80
2017,11,27,10,33,8.80
2017,11,27,10,34,8.70
2017,11,27,10,35,8.70
2017,11,27,10,36,8.70
2017,11,27,10,37,8.70
2017,11,27,10,38,8.70
2017,11,27,10,39,8.70
2017,11,27,10,40,8.70
2017,11,27,10,41,8.70
2017,11,27,10,42,8.70
2017,11,27,10,43,8.70
2017,11,27,10,44,8.80
2017,11,27,10,45,8.80
2017,11,27,10,46,8.80
2017,11,27,10,47,8.90
2017,11,27,10,48,9.00
2017,11,27,10,49,9.10
2017,11,27,10,50,9.20
2017,11,27,10,51,9.30
2017,11,27,10,52,9.40
2017,11,27,10,53,9.50
2017,11,27,10,54,9.60
2017,11,27,10,55,9.60
2017,11,27,10,56,9.60
2017,11,27,10,57,9.60
2017,11,27,10,58,9.60
2017,11,27,10,59,9.60
2017,11,27,11,00,9.60
2017,11,27,11,01,9.70
2017,11,27,11,02,9.80
2017,11,27,11,03,9.80
2017,11,27,11,04,9.90
2017,11,27,11,05,9.90
2017,11,27,11,06,9.80
2017,11,27,11,07,9.80
2017,11,27,11,08,9.70
2017,11,27,11,09,9.70
2017,11,27,11,10,9.70
2017,11,27,11,11,9.70
2017,11,27,11,12,9.70
2017,11,27,11,13,9.70
2017,11,27,11,14,9.60
2017,11,27,11,15,9.70
2017,11,27,11,16,9.70
2017,11,27,11,17,9.70
2017,11,27,11,18,9.80
2017,11,27,11,19,9.80
2017,11,27,11,20,9.80
2017,11,27,11,21,9.80
2017,11,27,11,22,9.80
2017,11,27,11,23,9.90
2017,11,27,11,24,9.90
2017,11,27,11,25,9.90
2017,11,27,11,26,9.90
2017,11,27,11,27,9.90
2017,11,27,11,28,9.90
2017,11,27,11,29,9.80
2017,11,27,11,30,9.80
2017,11,27,11,31,9.80
2017,11,27,11,32,9.80
2017,11,27,11,33,9.80
2017,11,27,11,34,9.90
2017,11,27,11,35,9.90
2017,11,27,11,36,10.00
2017,11,27,11,37,10.00
2017,11,27,11,38,10.10
2017,11,27,11,39,10.20
2017,11,27,11,40,10.20
2017,11,27,11,41,10.20
2017,11,27,11,42,10.20
2017,11,27,11,43,10.20
2017,11,27,11,44,10.20
2017,11,27,11,45,10.20
2017,11,27,11,46,10.30
2017,11,27,11,47,10.30
2017,11,27,11,48,10.30
2017,11,27,11,49,10.20
2017,11,27,11,50,10.30
2017,11,27,11,51,10.30
2017,11,27,11,52,10.30
2017,11,27,11,53,10.30
2017,11,27,11,54,10.20
2017,11,27,11,55,10.20
2017,11,27,11,56,10.20
2017,11,27,11,57,10.20
2017,11,27,11,58,10.20
2017,11,27,11,59,10.20
2017,11,27,12,00,10.20
2017,11,27,12,01,10.20
2017,11,27,12,02,10.30
2017,11,27,12,03,10.30
2017,11,27,12,04,10.40
2017,11,27,12,05,10.40
2017,11,27,12,06,10.40
2017,11,27,12,07,10.50
2017,11,27,12,08,10.40
2017,11,27,12,09,10.40
2017,11,27,12,10,10.40
2017,11,27,12,11,10.40
2017,11,27,12,12,10.30
2017,11,27,12,13,10.30
2017,11,27,12,14,10.30
2017,11,27,12,15,10.30
2017,11,27,12,16,10.30
2017,11,27,12,17,10.20
2017,11,27,12,18,10.20
2017,11,27,12,19,10.20
2017,11,27,12,20,10.20
2017,11,27,12,21,10.20
2017,11,27,12,22,10.10
2017,11,27,12,23,10.10
2017,11,27,12,24,10.10
2017,11,27,12,25,10.10
2017,11,27,12,26,10.10
2017,11,27,12,27,10.10
2017,11,27,12,28,10.10
2017,11,27,12,29,10.10
2017,11,27,12,30,10.20
2017,11,27,12,31,10.20
2017,11,27,12,32,10.20
2017,11,27,12,33,10.20
2017,11,27,12,34,10.30
2017,11,27,12,35,10.30
2017,11,27,12,36,10.30
2017,11,27,12,37,10.30
2017,11,27,12,38,10.30
2017,11,27,12,39,10.30
2017,11,27,12,40,10.30
2017,11,27,12,41,10.40
2017,11,27,12,42,10.40
2017,11,27,12,43,10.40
2017,11,27,12,44,10.40
2017,11,27,12,45,10.40
2017,11,27,12,46,10.40
2017,11,27,12,47,10.40
2017,11,27,12,48,10.40
2017,11,27,12,49,10.40
2017,11,27,12,50,10.40
2017,11,27,12,51,10.40
2017,11,27,12,52,10.40
2017,11,27,12,53,10.40
2017,11,27,12,54,10.40
2017,11,27,12,55,10.40
2017,11,27,12,56,10.40
2017,11,27,12,57,10.40
2017,11,27,12,58,10.40
2017,11,27,12,59,10.40
2017,11,27,13,00,10.40
2017,11,27,13,01,10.40
2017,11,27,13,02,10.40
2017,11,27,13,03,10.40
2017,11,27,13,04,10.40
2017,11,27,13,05,10.40
2017,11,27,13,06,10.40
2017,11,27,13,07,10.40
2017,11,27,13,08,10.30
2017,11,27,13,09,10.30
2017,11,27,13,10,10.20
2017,11,27,13,11,10.20
2017,11,27,13,12,10.20
2017,11,27,13,13,10.20
2017,11,27,13,14,10.20
2017,11,27,13,15,10.10
2017,11,27,13,16,10.10
2017,11,27,13,17,10.10
2017,11,27,13,18,10.10
2017,11,27,13,19,10.10
2017,11,27,13,20,10.00
2017,11,27,13,21,10.00
2017,11,27,13,22,10.00
2017,11,27,13,23,10.00
2017,11,27,13,24,9.90
2017,11,27,13,25,9.90
2017,11,27,13,26,9.90
2017,11,27,13,27,9.90
2017,11,27,13,28,9.90
2017,11,27,13,29,9.90
2017,11,27,13,30,9.90
2017,11,27,13,31,9.90
2017,11,27,13,32,9.90
2017,11,27,13,33,9.90
2017,11,27,13,34,9.90
2017,11,27,13,35,9.90
2017,11,27,13,36,9.90
2017,11,27,13,37,9.80
2017,11,27,13,38,9.80
2017,11,27,13,39,9.80
2017,11,27,13,40,9.70
2017,11,27,13,41,9.70
2017,11,27,13,42,9.70
2017,11,27,13,43,9.70
2017,11,27,13,44,9.60
2017,11,27,13,45,9.60
2017,11,27,13,46,9.60
2017,11,27,13,47,9.60
2017,11,27,13,48,9.60
2017,11,27,13,49,9.60
2017,11,27,13,50,9.60
2017,11,27,13,51,9.60
2017,11,27,13,52,9.60
2017,11,27,13,53,9.60
2017,11,27,13,54,9.60
2017,11,27,13,55,9.60
2017,11,27,13,56,9.60
2017,11,27,13,57,9.60
2017,11,27,13,58,9.60
2017,11,27,13,59,9.60
2017,11,27,14,00,9.60
2017,11,27,14,01,9.60
2017,11,27,14,02,9.60
2017,11,27,14,03,9.60
2017,11,27,14,04,9.60
2017,11,27,14,05,9.60
2017,11,27,14,06,9.60
2017,11,27,14,07,9.60
2017,11,27,14,08,9.60
2017,11,27,14,09,9.60
2017,11,27,14,10,9.60
2017,11,27,14,11,9.60
2017,11,27,14,12,9.70
2017,11,27,14,13,9.70
2017,11,27,14,14,9.70
2017,11,27,14,15,9.70
2017,11,27,14,16,9.80
2017,11,27,14,17,9.80
2017,11,27,14,18,9.80
2017,11,27,14,19,9.90
2017,11,27,14,20,9.90
2017,11,27,14,21,10.00
2017,11,27,14,22,10.00
2017,11,27,14,23,10.10
2017,11,27,14,24,10.10
2017,11,27,14,25,10.10
2017,11,27,14,26,10.00
2017,11,27,14,27,10.00
2017,11,27,14,28,10.00
2017,11,27,14,29,10.00
2017,11,27,14,30,10.00
2017,11,27,14,31,10.00
2017,11,27,14,32,10.00
2017,11,27,14,33,10.00
2017,11,27,14,34,10.00
2017,11,27,14,35,9.90
2017,11,27,14,36,9.90
2017,11,27,14,37,9.90
2017,11,27,14,38,9.90
2017,11,27,14,39,9.90
2017,11,27,14,40,9.90
2017,11,27,14,41,9.90
2017,11,27,14,42,9.80
2017,11,27,14,43,9.80
2017,11,27,14,44,9.80
2017,11,27,14,45,9.80
2017,11,27,14,46,9.70
2017,11,27,14,47,9.70
2017,11,27,14,48,9.70
2017,11,27,14,49,9.70
2017,11,27,14,50,9.60
2017,11,27,14,51,9.60
2017,11,27,14,52,9.60
2017,11,27,14,53,9.60
2017,11,27,14,54,9.60
2017,11,27,14,55,9.60
2017,11,27,14,56,9.60
2017,11,27,14,57,9.60
2017,11,27,14,58,9.60
2017,11,27,14,59,9.60
2017,11,27,15,00,9.60
2017,11,27,15,01,9.60
2017,11,27,15,02,9.50
2017,11,27,15,03,9.50
2017,11,27,15,04,9.50
2017,11,27,15,05,9.50
2017,11,27,15,06,9.40
2017,11,27,15,07,9.40
2017,11,27,15,08,9.40
2017,11,27,15,09,9.40
2017,11,27,15,10,9.40
2017,11,27,15,11,9.30
2017,11,27,15,12,9.30
2017,11,27,15,13,9.30
2017,11,27,15,14,9.30
2017,11,27,15,15,9.30
2017,11,27,15,16,9.20
2017,11,27,15,17,9.20
2017,11,27,15,18,9.20
2017,11,27,15,19,9.20
2017,11,27,15,20,9.10
2017,11,27,15,21,9.10
2017,11,27,15,22,9.10
2017,11,27,15,23,9.10
2017,11,27,15,24,9.10
2017,11,27,15,25,9.10
2017,11,27,15,26,9.00
2017,11,27,15,27,9.00
2017,11,27,15,28,9.00
2017,11,27,15,29,9.00
2017,11,27,15,30,9.00
2017,11,27,15,31,8.90
2017,11,27,15,32,8.90
2017,11,27,15,33,8.90
2017,11,27,15,34,8.90
2017,11,27,15,35,8.90
2017,11,27,15,36,8.80
2017,11,27,15,37,8.80
2017,11,27,15,38,8.80
2017,11,27,15,39,8.80
2017,11,27,15,40,8.80
2017,11,27,15,41,8.80
2017,11,27,15,42,8.80
2017,11,27,15,43,8.80
2017,11,27,15,44,8.80
2017,11,27,15,45,8.80
2017,11,27,15,46,8.80
2017,11,27,15,47,8.80
2017,11,27,15,48,8.80
2017,11,27,15,49,8.80
2017,11,27,15,50,8.80
2017,11,27,15,51,8.80
2017,11,27,15,52,8.70
2017,11,27,15,53,8.70
2017,11,27,15,54,8.70
2017,11,27,15,55,8.70
2017,11,27,15,56,8.70
2017,11,27,15,57,8.70
2017,11,27,15,58,8.70
2017,11,27,15,59,8.70
2017,11,27,16,00,8.70
2017,11,27,16,01,8.70
2017,11,27,16,02,8.70
2017,11,27,16,03,8.70
2017,11,27,16,04,8.70
2017,11,27,16,05,8.70
2017,11,27,16,06,8.70
2017,11,27,16,07,8.70
2017,11,27,16,08,8.70
2017,11,27,16,09,8.70
2017,11,27,16,10,8.70
2017,11,27,16,11,8.70
2017,11,27,16,12,8.70
2017,11,27,16,13,8.70
2017,11,27,16,14,8.70
2017,11,27,16,15,8.70
2017,11,27,16,16,8.70
2017,11,27,16,17,8.70
2017,11,27,16,18,8.70
2017,11,27,16,19,8.70
2017,11,27,16,20,8.70
2017,11,27,16,21,8.70
2017,11,27,16,22,8.70
2017,11,27,16,23,8.60
2017,11,27,16,24,8.60
2017,11,27,16,25,8.60
2017,11,27,16,26,8.60
2017,11,27,16,27,8.60
2017,11,27,16,28,8.60
2017,11,27,16,29,8.60
2017,11,27,16,30,8.60
2017,11,27,16,31,8.60
2017,11,27,16,32,8.60
2017,11,27,16,33,8.60
2017,11,27,16,34,8.60
2017,11,27,16,35,8.70
2017,11,27,16,36,8.70
2017,11,27,16,37,8.60
2017,11,27,16,38,8.70
2017,11,27,16,39,8.70
2017,11,27,16,40,8.70
2017,11,27,16,41,8.70
2017,11,27,16,42,8.70
2017,11,27,16,43,8.70
2017,11,27,16,44,8.60
2017,11,27,16,45,8.60
2017,11,27,16,46,8.60
2017,11,27,16,47,8.60
2017,11,27,16,48,8.60
2017,11,27,16,49,8.60
2017,11,27,16,50,8.60
2017,11,27,16,51,8.60
2017,11,27,16,52,8.60
2017,11,27,16,53,8.60
2017,11,27,16,54,8.60
2017,11,27,16,55,8.60
2017,11,27,16,56,8.60
2017,11,27,16,57,8.50
2017,11,27,16,58,8.60
2017,11,27,16,59,8.50
2017,11,27,17,00,8.50
2017,11,27,17,01,8.50
2017,11,27,17,02,8.50
2017,11,27,17,03,8.50
2017,11,27,17,04,8.50
2017,11,27,17,05,8.40
2017,11,27,17,06,8.40
2017,11,27,17,07,8.40
2017,11,27,17,08,8.40
2017,11,27,17,09,8.40
2017,11,27,17,10,8.40
2017,11,27,17,11,8.40
2017,11,27,17,12,8.40
2017,11,27,17,13,8.40
2017,11,27,17,14,8.40
2017,11,27,17,15,8.40
2017,11,27,17,16,8.40
2017,11,27,17,17,8.40
2017,11,27,17,18,8.40
2017,11,27,17,19,8.40
2017,11,27,17,20,8.40
2017,11,27,17,21,8.40
2017,11,27,17,22,8.40
2017,11,27,17,23,8.40
2017,11,27,17,24,8.40
2017,11,27,17,25,8.40
2017,11,27,17,26,8.40
2017,11,27,17,27,8.40
2017,11,27,17,28,8.30
2017,11,27,17,29,8.30
2017,11,27,17,30,8.30
2017,11,27,17,31,8.30
2017,11,27,17,32,8.30
2017,11,27,17,33,8.30
2017,11,27,17,34,8.30
2017,11,27,17,35,8.30
2017,11,27,17,36,8.30
2017,11,27,17,37,8.30
2017,11,27,17,38,8.30
2017,11,27,17,39,8.30
2017,11,27,17,40,8.30
2017,11,27,17,41,8.30
2017,11,27,17,42,8.30
2017,11,27,17,43,8.30
2017,11,27,17,44,8.30
2017,11,27,17,45,8.30
2017,11,27,17,46,8.30
2017,11,27,17,47,8.30
2017,11,27,17,48,8.30
2017,11,27,17,49,8.30
2017,11,27,17,50,8.30
2017,11,27,17,51,8.30
2017,11,27,17,52,8.30
2017,11,27,17,53,8.30
2017,11,27,17,54,8.30
2017,11,27,17,55,8.30
2017,11,27,17,56,8.30
2017,11,27,17,57,8.30
2017,11,27,17,58,8.30
2017,11,27,17,59,8.20
2017,11,27,18,00,8.20
2017,11,27,18,01,8.20